Weather History for KSKA - October, 2011

Change the Weather History Date:

Friday, October 7, 2011

  Actual Average Record
Temperature  
Mean Temperature 52 °F -  
Max Temperature 60 °F 60 °F 79 °F (2014)
Min Temperature 45 °F 38 °F 32 °F (1997)
Degree Days  
Heating Degree Days 13    
Growing Degree Days 2 (Base 50)    
Moisture  
Dew Point 42 °F    
Average Humidity 78    
Maximum Humidity 100    
Minimum Humidity 45    
Precipitation  
Precipitation 0.01 in - - ()
Sea Level Pressure  
Sea Level Pressure 29.98 in    
Wind  
Wind Speed 8 mph (WSW)    
Max Wind Speed 16 mph    
Max Gust Speed 22 mph    
Visibility 9 miles    
Events      
Averages and records for this station are not official NWS values.
T = Trace of Precipitation, MM = Missing Value Source: NWS Daily Summary

Daily Weather History Graph

Daily Weather History Graph

Search for Another Location

Airport or City:

Trip Planner

Search our weather history database for the weather conditions in past years. The results will help you decide how hot, cold, wet, or windy it might be!

Date:

Astronomy

Oct. 07, 2011 Rise Set
Actual Time 6:57 AM PDT 6:18 PM PDT
Civil Twilight 6:26 AM PDT 6:49 PM PDT
Nautical Twilight 5:51 AM PDT 7:24 PM PDT
Astronomical Twilight 5:15 AM PDT 8:00 PM PDT
Moon 4:16 PM PDT (10/7) 2:35 AM PDT (10/7)
Length of Visible Light 12h 22m
Length of Day
11h 20m
Waxing Gibbous, 84% of the Moon is Illuminated
Oct 7
Waxing Gibbous
Oct 11
Full
Oct 19
Last Quarter
Oct 26
New
Nov 2
First Quarter

Hourly Weather History & Observations

Time (PDT) Temp. Windchill Dew Point Humidity Pressure Visibility Wind Dir Wind Speed Gust Speed Precip Events Conditions
12:09 AM 46.4 °F 42.4 °F 46.4 °F 100% 29.89 in 6.0 mi SSW 8.1 mph - N/A   Mostly Cloudy
12:55 AM 46.8 °F - 45.9 °F 97% 29.89 in 7.0 mi SSW 10.4 mph - N/A   Mostly Cloudy
1:40 AM 46.4 °F 42.9 °F 46.4 °F 100% 29.90 in 7.0 mi SSW 6.9 mph - N/A   Mostly Cloudy
1:55 AM 46.9 °F - 46.2 °F 97% 29.90 in 7.0 mi South 9.2 mph - N/A   Mostly Cloudy
2:10 AM 46.4 °F 42.9 °F 46.4 °F 100% 29.89 in 7.0 mi SSW 6.9 mph - N/A   Overcast
2:40 AM 46.4 °F 41.9 °F 46.4 °F 100% 29.88 in 7.0 mi SW 9.2 mph - N/A   Mostly Cloudy
2:55 AM 46.8 °F - 45.9 °F 97% 29.88 in 8.0 mi SW 10.4 mph - N/A   Mostly Cloudy
3:55 AM 46.2 °F 41.7 °F 44.6 °F 94% 29.89 in 10.0 mi SSW 9.2 mph - N/A   Mostly Cloudy
4:25 AM 46.4 °F 41.9 °F 44.6 °F 93% 29.89 in 10.0 mi SSW 9.2 mph - N/A   Mostly Cloudy
4:55 AM 45.7 °F 41.5 °F 44.2 °F 95% 29.90 in 10.0 mi SSW 8.1 mph - N/A   Mostly Cloudy
5:10 AM 46.4 °F 41.1 °F 44.6 °F 93% 29.91 in 10.0 mi SSW 11.5 mph - N/A   Mostly Cloudy
5:25 AM 46.4 °F 41.1 °F 44.6 °F 93% 29.91 in 10.0 mi SW 11.5 mph - N/A   Overcast
5:55 AM 45.5 °F 40.3 °F 43.3 °F 92% 29.92 in 10.0 mi SW 10.4 mph - N/A   Overcast
6:55 AM 45.1 °F 39.9 °F 42.8 °F 91% 29.94 in 10.0 mi SW 10.4 mph - N/A   Mostly Cloudy
7:55 AM 45.3 °F 38.4 °F 41.7 °F 87% 29.95 in 10.0 mi WSW 16.1 mph 21.9 mph N/A   Mostly Cloudy
8:55 AM 45.7 °F 39.5 °F 42.6 °F 89% 29.96 in 10.0 mi SW 13.8 mph 21.9 mph N/A   Mostly Cloudy
9:55 AM 50.0 °F - 44.2 °F 81% 29.96 in 10.0 mi WSW 12.7 mph - N/A   Mostly Cloudy
10:55 AM 51.1 °F - 43.9 °F 76% 29.97 in 10.0 mi WSW 13.8 mph - N/A   Mostly Cloudy
11:55 AM 53.8 °F - 43.7 °F 69% 29.98 in 10.0 mi West 10.4 mph - N/A   Mostly Cloudy
12:55 PM 56.3 °F - 39.9 °F 54% 29.98 in 10.0 mi West 10.4 mph 17.3 mph N/A   Mostly Cloudy
1:55 PM 57.0 °F - 38.7 °F 50% 29.99 in 10.0 mi Variable 4.6 mph - N/A   Mostly Cloudy
2:55 PM 57.9 °F - 37.9 °F 47% 29.99 in 10.0 mi WNW 6.9 mph - N/A   Mostly Cloudy
3:55 PM 59.0 °F - 37.6 °F 45% 30.01 in 10.0 mi West 6.9 mph 15.0 mph N/A   Mostly Cloudy
4:55 PM 58.3 °F - 38.3 °F 47% 30.01 in 10.0 mi NW 4.6 mph - N/A   Scattered Clouds
5:55 PM 57.6 °F - 37.4 °F 47% 30.04 in 10.0 mi NW 3.5 mph - N/A   Mostly Cloudy
6:55 PM 53.4 °F - 38.3 °F 57% 30.08 in 10.0 mi NNW 2.3 mph - N/A   Clear
7:55 PM 48.6 °F - 38.1 °F 67% 30.12 in 10.0 mi Calm Calm - N/A   Clear
8:55 PM 50.0 °F - 36.1 °F 59% 30.13 in 10.0 mi WNW 2.3 mph - N/A   Clear
9:55 PM 45.5 °F - 36.3 °F 70% 30.14 in 10.0 mi West 2.3 mph - N/A   Clear
10:55 PM 45.1 °F 42.8 °F 35.8 °F 70% 30.16 in 10.0 mi West 4.6 mph - N/A   Clear
11:55 PM 45.7 °F - 36.5 °F 70% 30.17 in 10.0 mi North 2.3 mph - N/A   Partly Cloudy